Location: Newark
(56.0692°N, 115.8617°E)
Time: 12:32:12
(UTC+00:00)

Vanguard 2 Rocket - Pass Details

Date: 01 June 2020
Orbit: 556 x 3325 km, 32.9° (Epoch: 14 July)

Event Time Altitude Azimuth Distance (km) Brightness Sun altitude
Rises 08:19:21 0° 226° (SW) 4,224 11.1 34.2°
Reaches altitude 10° 08:22:43 10° 210° (SSW) 3,643 10.6 33.7°
Maximum altitude 08:29:30 21° 166° (SSE) 3,565 10.1 32.8°
Drops below altitude 10° 08:38:56 10° 126° (SE) 5,269 10.5 31.5°
Sets 08:45:19 0° 114° (ESE) 6,741 10.9 30.6°
